This is the latest recevied weather packets stored in our database for station/object DO6DD-13. If no packets are shown the sender has not sent any weather packets the latest 10 day(s).
| Time | Temp. | Humidity | Pressure | Rain* | Wind** | Luminosity | Snow |
|---|---|---|---|---|---|---|---|
| 1777808416 | 22.78° C | 43% | 1010.8 hPa | - | - | 290 W/m² | - |
| 1777807825 | 22.78° C | 47% | 1010.8 hPa | - | - | 376 W/m² | - |
| 1777807225 | 22.22° C | 48% | 1011 hPa | - | - | 280 W/m² | - |
| 1777806624 | 22.22° C | 48% | 1011 hPa | - | - | 384 W/m² | - |
| 1777806024 | 22.22° C | 51% | 1011 hPa | - | - | 556 W/m² | - |
| 1777805423 | 22.22° C | 52% | 1011.1 hPa | - | - | 600 W/m² | - |
| 1777804823 | 22.22° C | 55% | 1011.1 hPa | - | - | 422 W/m² | - |
| 1777804222 | 21.67° C | 56% | 1011.2 hPa | - | - | 278 W/m² | - |
| 1777803622 | 21.67° C | 54% | 1011.4 hPa | - | - | 244 W/m² | - |
| 1777803021 | 21.11° C | 57% | 1011.5 hPa | - | - | 248 W/m² | - |
| 1777802421 | 21.11° C | 62% | 1011.6 hPa | - | - | 222 W/m² | - |
| 1777801820 | 21.11° C | 61% | 1011.6 hPa | - | - | 168 W/m² | - |
| 1777801219 | 21.11° C | 60% | 1011.5 hPa | - | - | 138 W/m² | - |
| 1777800619 | 21.11° C | 60% | 1011.5 hPa | - | - | 122 W/m² | - |
| 1777800019 | 21.67° C | 59% | 1011.5 hPa | - | - | 114 W/m² | - |
| 1777799418 | 21.11° C | 57% | 1011.5 hPa | - | - | 108 W/m² | - |
| 1777798818 | 21.11° C | 57% | 1011.6 hPa | - | - | 98 W/m² | - |
| 1777798217 | 20.56° C | 59% | 1011.6 hPa | - | - | 88 W/m² | - |
| 1777797617 | 20° C | 60% | 1011.7 hPa | - | - | 88 W/m² | - |
| 1777797016 | 19.44° C | 60% | 1011.9 hPa | - | - | 88 W/m² | - |
| 1777796426 | 19.44° C | 61% | 1012 hPa | - | - | 90 W/m² | - |
| 1777795825 | 18.89° C | 65% | 1012.1 hPa | - | - | 88 W/m² | - |
| 1777795225 | 18.33° C | 70% | 1012.2 hPa | - | - | 94 W/m² | - |
| 1777794624 | 18.33° C | 74% | 1012.2 hPa | - | - | 100 W/m² | - |
| 1777794024 | 17.78° C | 76% | 1012.3 hPa | - | - | 106 W/m² | - |
* Rain since midnight (hover to see other rain measurements)
** Current wind speed in m/s (hover to see current wind gust speed)